Total_Precipitation_Accumulation
1.07 1.09 1.19 1.18 1.23 1.31 1.48 1.73 2.18 1.93 1.11 0.76 0.84 0.96 1.18 1.58 2.13 2.26 2.32 2.96 3.21 3.16 3.04 3.32 4.69 5.85 6.70 6.83 5.86 4.49 3.96 3.53 3.19 3.39 3.54 3.65 4.55 4.91
1.30 1.28 1.22 1.17 1.19 1.18 1.24 1.35 1.62 1.99 1.94 0.92 0.86 0.93 1.05 1.32 1.84 1.74 1.75 2.25 2.59 2.98 2.87 2.82 3.25 3.73 4.20 5.11 5.51 5.21 4.42 4.17 3.26 3.17 3.15 3.29 3.41 3.97
1.61 1.55 1.40 1.42 1.72 1.84 1.80 1.84 2.05 2.37 2.77 1.78 1.23 1.05 0.98 0.99 1.33 1.63 1.58 1.36 1.50 2.05 2.29 2.31 2.39 2.48 2.91 3.56 3.91 4.00 3.94 3.58 3.31 2.74 2.99 2.81 2.98 3.44
1.21 1.38 1.29 1.25 1.27 1.28 1.40 1.50 1.57 1.67 2.06 1.84 1.33 1.30 1.20 1.15 1.19 1.55 1.76 1.69 1.63 1.92 2.08 2.13 2.17 1.79 1.62 2.09 2.88 3.03 2.97 3.13 3.00 2.45 2.18 2.25 2.08 2.51
0.97 1.04 1.01 1.13 1.19 1.28 1.42 1.55 1.59 1.71 1.88 1.98 1.55 1.32 1.26 1.21 1.34 1.37 1.70 1.72 1.70 2.04 1.96 2.07 2.38 2.12 1.76 1.85 2.17 2.74 2.41 2.41 2.46 2.31 1.95 2.04 1.72 2.00
0.54 0.67 0.79 1.03 1.19 1.39 1.53 1.51 1.50 1.62 1.54 1.55 1.31 0.98 0.79 0.79 0.99 1.17 1.22 1.38 1.40 1.40 1.68 1.58 2.07 2.00 1.71 1.56 1.67 2.53 2.45 2.31 2.32 2.31 1.95 2.09 1.96 2.02
0.63 0.62 0.59 0.78 0.96 1.03 1.19 1.26 1.44 1.59 1.65 1.66 1.36 1.00 0.70 0.53 0.62 0.93 1.09 1.29 1.51 1.45 1.47 1.45 1.53 1.38 1.12 1.08 1.12 2.04 2.53 2.53 2.66 2.78 2.46 2.37 2.47 2.17
0.75 0.77 0.94 1.08 0.88 0.85 0.80 0.78 0.85 1.08 1.32 1.39 1.31 1.08 0.78 0.69 0.82 1.18 1.46 1.66 1.76 1.30 1.40 1.43 1.65 1.38 0.83 0.77 1.15 1.56 2.02 2.26 2.45 2.59 2.90 2.71 2.89 2.53
1.20 1.04 0.78 0.73 0.78 0.58 0.62 0.68 0.63 0.67 0.75 0.76 0.80 0.54 0.47 0.47 0.84 1.19 1.31 1.54 1.60 1.28 1.73 1.77 1.86 1.80 0.82 0.71 0.91 1.25 1.76 2.03 2.16 2.29 2.69 2.90 2.97 3.20
0.92 0.96 0.92 0.74 0.54 0.47 0.54 0.62 0.51 0.34 0.30 0.36 0.42 0.56 0.72 0.78 1.03 1.44 1.45 1.57 1.64 1.54 1.88 1.99 1.62 1.67 1.01 0.58 0.76 1.12 1.66 1.75 1.87 1.93 2.30 2.88 3.02 3.42
0.60 0.50 0.65 0.69 0.72 0.72 0.63 0.61 0.40 0.45 0.58 0.56 0.53 0.67 0.81 0.94 1.01 1.28 1.60 1.91 1.89 1.55 1.77 1.92 1.46 1.44 0.96 0.62 0.59 1.33 1.49 1.57 1.58 1.72 2.09 2.79 3.03 3.36
0.73 0.60 0.72 0.79 0.84 0.81 0.66 0.50 0.58 0.35 0.44 0.47 0.47 0.42 0.55 0.71 0.90 0.89 1.13 1.97 1.99 2.03 1.46 1.95 1.47 1.78 2.02 0.99 0.59 1.20 1.54 1.62 1.60 1.59 1.80 2.43 2.97 3.31
0.68 0.64 0.41 0.60 0.85 0.85 0.85 0.72 0.64 0.61 0.62 0.61 0.52 0.55 0.53 0.61 0.68 0.65 0.72 1.36 2.07 1.87 1.16 2.30 2.30 1.74 2.46 1.61 0.95 1.48 1.75 1.83 1.85 1.75 1.89 2.45 2.83 3.38
0.81 0.68 0.70 0.81 0.86 0.85 0.85 0.96 0.99 0.94 0.69 0.60 0.63 0.57 0.46 0.39 0.43 0.47 0.54 0.69 1.02 1.54 1.35 1.70 2.89 2.02 2.83 2.26 1.49 1.63 1.98 1.88 1.80 1.94 2.09 2.93 3.01 3.42
0.76 1.00 1.24 1.09 0.94 0.90 0.87 0.92 0.83 0.74 0.75 0.67 0.60 0.51 0.42 0.41 0.47 0.66 0.82 0.84 1.03 1.02 1.19 1.42 1.97 2.11 2.87 2.96 2.19 1.66 1.90 2.33 1.71 1.69 2.15 2.72 3.07 3.46
0.98 1.06 1.16 1.03 0.88 0.76 0.71 0.67 0.63 0.65 0.72 0.64 0.65 0.58 0.62 0.74 0.75 0.64 0.95 0.96 1.34 1.24 1.00 1.40 1.77 2.17 2.67 2.29 2.45 2.07 1.34 2.37 1.56 1.35 2.11 2.58 2.55 2.79
1.31 1.14 1.02 0.91 0.81 0.76 0.61 0.59 0.61 0.67 0.78 0.65 0.71 0.73 0.67 0.71 0.77 0.84 1.02 1.19 1.47 1.15 1.14 1.30 1.52 1.79 2.12 2.45 2.65 1.85 1.68 1.72 1.61 1.82 2.25 2.95 3.01 3.03
1.75 1.48 1.29 1.11 1.01 0.99 0.88 0.87 0.76 0.72 0.67 0.76 0.76 0.81 0.89 0.83 0.87 0.83 0.96 1.24 1.45 1.25 1.32 1.36 1.43 1.71 2.05 2.36 2.55 2.49 2.37 2.13 2.12 2.05 2.02 3.01 3.43 3.20
1.63 1.17 1.14 1.12 1.23 1.24 1.11 1.04 0.93 0.70 0.79 1.00 1.15 1.12 1.21 1.20 1.18 1.01 0.98 1.18 1.31 1.39 1.56 1.58 1.82 2.20 2.74 2.42 2.57 2.70 3.16 2.65 2.39 2.47 2.36 2.10 2.86 3.04
1.19 1.01 1.08 1.13 1.16 1.28 1.30 1.23 1.09 1.04 1.15 1.23 1.39 1.38 1.39 1.52 1.34 1.15 1.05 1.29 1.48 1.40 1.59 1.75 1.95 2.32 3.54 3.30 3.24 2.93 2.87 2.75 3.12 3.02 2.80 2.82 2.92 3.14
0.99 1.03 1.02 1.12 1.12 1.07 1.08 1.30 1.38 1.27 1.25 1.32 1.19 1.23 1.21 1.60 1.36 1.06 1.14 1.21 1.44 1.60 1.77 1.57 1.66 2.03 2.70 3.21 3.29 2.99 3.11 2.81 2.62 3.49 3.34 3.95 3.32 2.91
1.04 1.00 0.83 0.85 0.92 0.96 0.99 1.08 1.28 1.35 1.24 1.04 0.97 1.06 1.08 1.37 1.39 1.19 1.16 1.40 1.24 1.33 1.69 1.71 1.68 1.89 2.69 3.29 2.80 2.31 2.43 2.72 3.20 2.83 2.19 3.02 3.94 4.36
1.19 1.15 0.93 0.82 0.85 0.92 0.99 1.00 0.95 0.92 0.96 1.00 1.03 1.01 1.11 1.31 1.05 1.18 1.22 1.25 1.20 1.43 1.54 1.83 1.66 1.69 2.03 2.58 2.44 2.30 2.06 2.27 3.01 3.23 3.50 2.34 1.54 1.80